Flag for Uruguay Weather past 2 weeks in Minas, Uruguay

Now
77 °F

Sunny.


Feels Like: 78 °F
Forecast: N/A
Wind: 6 mph from South

Location: Capitan Corbeta

Current Time: Dec 18, 2014 at 8:06:38 PM

Latest Report: Dec 18, 2014 at 7:00 PM


Visibility: 10 mi

Pressure: 29.77 "Hg

Humidity: 28%

Dew point: 41 °F

Location of MinasLocation

Historic Weather in Minas — Graph

°F

Minas temperature yesterday

Maximum temperature yesterday: 77 °F (at 4:00 PM)
Minimum temperature yesterday: 64 °F (at 11:00 PM)
Average temperature yesterday: 70 °F

Past Weeks' High & Low Weather Summary

 TemperatureHumidityPressure
High91 °F (Dec 6, 5:00 PM)94% (Dec 8, 6:00 AM)30.12 "Hg (Dec 8, 6:00 AM)
Low52 °F (Dec 4, 6:00 AM)32% (Dec 18, 6:00 PM)29.59 "Hg (Dec 9, 8:00 PM)
Average70 °F71%29.91 "Hg
* Reported Dec 3 6:00 PM — Dec 18 6:00 PM, Minas, Weather by CustomWeather, © 2014

Note: Actual official high and low records may vary slightly from our data, if they occured in-between our weather recording intervals... More about our weather records

Advertising

Minas weather history for previous 24 hours

 ConditionsComfort  
Time TempWeatherWind HumidityBarometerVisibility
6:00 PM
Dec 18
79 °FSunny.No wind32%29.80 "Hg10 mi
5:00 PM77 °FSunny.6 mph34%29.80 "Hg10 mi
4:00 PM75 °FSunny.9 mph57%29.83 "Hg10 mi
3:00 PM75 °FPassing clouds.6 mph54%29.86 "HgN/A
2:00 PM73 °FPassing clouds.9 mph65%29.86 "HgN/A
1:00 PM73 °FPassing clouds.5 mph65%29.89 "HgN/A
12:00 PM72 °FPassing clouds.10 mph65%29.89 "HgN/A
11:00 AM72 °FScattered clouds.12 mph65%29.89 "HgN/A
10:00 AM72 °FPassing clouds.13 mph65%29.89 "HgN/A
9:00 AM70 °FScattered clouds.14 mph69%29.89 "HgN/A
8:00 AM68 °FPassing clouds.8 mph69%29.83 "HgN/A
7:00 AM64 °FSunny.6 mph78%29.83 "Hg10 mi
6:00 AM64 °FClear.7 mph83%29.83 "Hg10 mi
5:00 AM66 °FClear.10 mph83%29.80 "Hg10 mi
3:00 AM63 °FPassing clouds.3 mph94%29.80 "HgN/A
11:00 PM
Dec 17
64 °FPassing clouds.5 mph88%29.80 "HgN/A
9:00 PM70 °FPassing clouds.5 mph78%29.83 "HgN/A
8:00 PM72 °FPassing clouds.10 mph73%29.83 "HgN/A
Weather by CustomWeather, © 2014

See weather overviewHow to use our weather pages